Tracking 35334 objects as of 12-Sep-2026
HD Live streaming from Space Station
objects crossing your sky now

SL-4 R/B


SL-4 R/B is no longer on orbit


NORAD ID: 42972
Int'l Code: 2017-065B
Launch date: October 14, 2017
Source: Commonwealth of Independent States (former USSR) (CIS)
Launch site: TYURATAM MISSILE AND SPACE COMPLEX (TTMTR)
Decay date: 2017-10-16

Note: This is a ROCKET BODY
Your satellite tracking list
Your tracking list is empty




NASA's NSSDC Master Catalog

Two Line Element Set (TLE):
1 42972U 17065B   17289.62052925  .29467733  12869-4  11195-3 0  9992
2 42972  51.6389 152.1205 0002556 112.9230 247.5314 16.57265618   373
Source of the keplerian elements: AFSPC